When you browse on this site, cookies collect data to enhance your experience and personalize the content and advertising you see.
Visit our Privacy Policy to learn more. By continuing to use the site, you agree to this use of cookies and data.
  • In Hungary
  • List of Countries
  • For 7 days
  • Water Temperature
  • Satellite Maps
  • Weather Map
  • News
  • Weather Widgets
  • user-avatar
    Login

    Hourly Weather Libertador General San Martin

    Today, 17 July, Wednesday

    Time Temperature Precipitation Wind Pressure Humidity
    00:00 +15°C° 0 mm 0 mps 711 mmHg 85%
    01:00 +14°C° 0 mm 0 mps 711 mmHg 84%
    02:00 +15°C° 0 mm 0 mps 711 mmHg 84%
    03:00 +14°C° 0 mm 0 mps 711 mmHg 85%
    04:00 +13°C° 0 mm 0 mps 711 mmHg 86%
    05:00 +13°C° 0 mm 0 mps 710 mmHg 87%
    06:00 +13°C° 0 mm 0 mps 711 mmHg 84%
    07:00 +13°C° 0 mm 0 mps 711 mmHg 80%
    08:00 +14°C° 0 mm 0 mps 712 mmHg 77%
    09:00 +18°C° 0 mm 1 mps 712 mmHg 66%
    10:00 +21°C° 0 mm 1 mps 712 mmHg 55%
    11:00 +24°C° 0 mm 2 mps 712 mmHg 44%
    12:00 +25°C° 0 mm 2 mps 711 mmHg 41%
    13:00 +26°C° 0 mm 2 mps 710 mmHg 39%
    14:00 +27°C° 0 mm 2 mps 710 mmHg 37%
    15:00 +26°C° 0 mm 2 mps 709 mmHg 40%
    16:00 +25°C° 0 mm 2 mps 709 mmHg 43%
    17:00 +24°C° 0 mm 2 mps 708 mmHg 45%
    18:00 +21°C° 0 mm 2 mps 709 mmHg 53%
    19:00 +20°C° 0 mm 1 mps 709 mmHg 61%
    20:00 +16°C° 0 mm 1 mps 709 mmHg 68%
    21:00 +16°C° 0 mm 1 mps 709 mmHg 69%
    22:00 +16°C° 0 mm 1 mps 709 mmHg 70%
    23:00 +15°C° 0 mm 1 mps 709 mmHg 70%

    Tomorrow, 18 July, Thursday

    Time Temperature Precipitation Wind Pressure Humidity
    00:00 +15°C° 0 mm 1 mps 709 mmHg 70%
    01:00 +15°C° 0 mm 1 mps 708 mmHg 69%
    02:00 +13°C° 0 mm 0 mps 708 mmHg 68%
    03:00 +14°C° 0 mm 1 mps 708 mmHg 68%
    04:00 +14°C° 0 mm 1 mps 708 mmHg 67%
    05:00 +14°C° 0 mm 1 mps 708 mmHg 67%
    06:00 +14°C° 0 mm 1 mps 708 mmHg 63%
    07:00 +15°C° 0 mm 1 mps 709 mmHg 60%
    08:00 +15°C° 0 mm 0 mps 709 mmHg 56%
    09:00 +20°C° 0 mm 1 mps 709 mmHg 49%
    10:00 +23°C° 0 mm 1 mps 710 mmHg 42%
    11:00 +26°C° 0 mm 1 mps 710 mmHg 35%
    12:00 +27°C° 0 mm 1 mps 709 mmHg 33%
    13:00 +28°C° 0 mm 2 mps 709 mmHg 32%
    14:00 +29°C° 0 mm 2 mps 708 mmHg 31%
    15:00 +28°C° 0 mm 2 mps 709 mmHg 35%
    16:00 +27°C° 0 mm 2 mps 709 mmHg 40%
    17:00 +26°C° 0 mm 2 mps 709 mmHg 44%
    18:00 +24°C° 0 mm 2 mps 709 mmHg 53%
    19:00 +21°C° 0 mm 1 mps 710 mmHg 62%
    20:00 +19°C° 0 mm 1 mps 710 mmHg 71%
    21:00 +19°C° 0 mm 1 mps 710 mmHg 70%
    22:00 +19°C° 0 mm 1 mps 711 mmHg 69%
    23:00 +18°C° 0 mm 1 mps 711 mmHg 68%

    Day after tomorrow, 19 July, Friday

    Time Temperature Precipitation Wind Pressure Humidity
    00:00 +18°C° 0 mm 1 mps 711 mmHg 69%
    01:00 +18°C° 0 mm 1 mps 710 mmHg 69%
    02:00 +18°C° 0 mm 1 mps 710 mmHg 69%
    03:00 +18°C° 0 mm 1 mps 710 mmHg 70%
    04:00 +16°C° 0 mm 0 mps 710 mmHg 70%
    05:00 +16°C° 0 mm 0 mps 710 mmHg 71%
    06:00 +16°C° 0 mm 0 mps 710 mmHg 71%
    07:00 +17°C° 0 mm 0 mps 711 mmHg 71%
    08:00 +17°C° 0 mm 0 mps 711 mmHg 71%
    09:00 +21°C° 0 mm 1 mps 711 mmHg 65%
    10:00 +23°C° 0 mm 1 mps 711 mmHg 58%
    11:00 +24°C° 0 mm 2 mps 711 mmHg 52%
    12:00 +25°C° 0 mm 2 mps 710 mmHg 49%
    13:00 +26°C° 0 mm 2 mps 709 mmHg 46%
    14:00 +27°C° 0 mm 3 mps 708 mmHg 43%
    15:00 +26°C° 0 mm 3 mps 707 mmHg 46%
    16:00 +26°C° 0 mm 2 mps 707 mmHg 48%
    17:00 +25°C° 0 mm 2 mps 706 mmHg 50%
    18:00 +23°C° 0 mm 2 mps 706 mmHg 59%
    19:00 +21°C° 0 mm 1 mps 706 mmHg 69%
    20:00 +18°C° 0 mm 1 mps 706 mmHg 78%
    21:00 +18°C° 0 mm 1 mps 706 mmHg 79%
    22:00 +16°C° 0 mm 1 mps 706 mmHg 81%
    23:00 +16°C° 0 mm 1 mps 706 mmHg 83%

    20 July, Saturday

    Time Temperature Precipitation Wind Pressure Humidity
    00:00 +16°C° 0 mm 1 mps 706 mmHg 80%
    01:00 +16°C° 0 mm 1 mps 705 mmHg 77%
    02:00 +16°C° 0 mm 1 mps 705 mmHg 74%
    03:00 +16°C° 0 mm 1 mps 705 mmHg 72%
    04:00 +15°C° 0 mm 1 mps 704 mmHg 70%
    05:00 +14°C° 0 mm 0 mps 704 mmHg 68%
    06:00 +16°C° 0 mm 1 mps 704 mmHg 64%
    07:00 +18°C° 0 mm 1 mps 704 mmHg 60%
    08:00 +18°C° 0 mm 1 mps 705 mmHg 57%
    09:00 +21°C° 0 mm 1 mps 705 mmHg 51%
    10:00 +24°C° 0 mm 1 mps 705 mmHg 45%
    11:00 +28°C° 0 mm 1 mps 705 mmHg 40%
    12:00 +28°C° 0 mm 2 mps 704 mmHg 39%
    13:00 +29°C° 0 mm 2 mps 703 mmHg 37%
    14:00 +30°C° 0 mm 2 mps 702 mmHg 36%
    15:00 +29°C° 0 mm 2 mps 701 mmHg 41%
    16:00 +28°C° 0 mm 2 mps 701 mmHg 46%
    17:00 +27°C° 0 mm 2 mps 701 mmHg 52%
    18:00 +25°C° 0 mm 2 mps 701 mmHg 56%
    19:00 +23°C° 0 mm 1 mps 701 mmHg 60%
    20:00 +20°C° 0 mm 1 mps 701 mmHg 65%
    21:00 +20°C° 0 mm 1 mps 701 mmHg 57%
    22:00 +20°C° 0 mm 1 mps 701 mmHg 49%
    23:00 +19°C° 0 mm 2 mps 701 mmHg 42%

    21 July, Sunday

    Time Temperature Precipitation Wind Pressure Humidity
    00:00 +20°C° 0 mm 1 mps 701 mmHg 39%
    01:00 +20°C° 0 mm 1 mps 701 mmHg 36%
    02:00 +19°C° 0 mm 1 mps 700 mmHg 33%
    03:00 +19°C° 0 mm 1 mps 700 mmHg 32%
    04:00 +18°C° 0 mm 2 mps 700 mmHg 30%
    05:00 +18°C° 0 mm 2 mps 700 mmHg 29%
    06:00 +19°C° 0 mm 2 mps 701 mmHg 26%
    07:00 +19°C° 0 mm 2 mps 701 mmHg 24%
    08:00 +21°C° 0 mm 1 mps 702 mmHg 22%
    09:00 +25°C° 0 mm 1 mps 702 mmHg 19%
    10:00 +29°C° 0 mm 1 mps 703 mmHg 17%
    11:00 +32°C° 0 mm 1 mps 703 mmHg 14%
    12:00 +33°C° 0 mm 1 mps 702 mmHg 14%
    13:00 +35°C° 0 mm 2 mps 702 mmHg 14%
    14:00 +36°C° 0 mm 2 mps 701 mmHg 14%
    15:00 +34°C° 0 mm 2 mps 701 mmHg 21%
    16:00 +31°C° 0 mm 2 mps 701 mmHg 29%
    17:00 +29°C° 0 mm 2 mps 700 mmHg 36%
    18:00 +26°C° 0 mm 2 mps 701 mmHg 41%
    19:00 +24°C° 0 mm 1 mps 701 mmHg 46%
    20:00 +21°C° 0 mm 1 mps 702 mmHg 50%
    21:00 +21°C° 0 mm 1 mps 702 mmHg 48%
    22:00 +20°C° 0 mm 1 mps 702 mmHg 45%
    23:00 +20°C° 0 mm 1 mps 702 mmHg 43%

    22 July, Monday

    Time Temperature Precipitation Wind Pressure Humidity
    00:00 +19°C° 0 mm 1 mps 702 mmHg 43%
    01:00 +19°C° 0 mm 1 mps 702 mmHg 43%
    02:00 +18°C° 0 mm 1 mps 702 mmHg 43%
    03:00 +18°C° 0 mm 1 mps 702 mmHg 44%
    04:00 +16°C° 0 mm 1 mps 702 mmHg 46%
    05:00 +16°C° 0 mm 1 mps 702 mmHg 48%
    06:00 +16°C° 0 mm 1 mps 703 mmHg 47%
    07:00 +16°C° 0 mm 0 mps 704 mmHg 46%
    08:00 +17°C° 0 mm 0 mps 705 mmHg 45%
    09:00 +21°C° 0 mm 1 mps 705 mmHg 45%
    10:00 +24°C° 0 mm 1 mps 706 mmHg 45%
    11:00 +27°C° 0 mm 1 mps 706 mmHg 44%
    12:00 +27°C° 0 mm 2 mps 706 mmHg 46%
    13:00 +27°C° 0 mm 2 mps 705 mmHg 47%
    14:00 +26°C° 0 mm 3 mps 705 mmHg 48%
    15:00 +25°C° 0 mm 3 mps 705 mmHg 53%
    16:00 +22°C° 0 mm 3 mps 705 mmHg 58%
    17:00 +20°C° 0 mm 2 mps 705 mmHg 63%
    18:00 +19°C° 0.1 mm 2 mps 706 mmHg 68%
    19:00 +17°C° 0.1 mm 2 mps 706 mmHg 72%
    20:00 +16°C° 0.1 mm 1 mps 707 mmHg 77%
    21:00 +15°C° 0.1 mm 1 mps 707 mmHg 77%
    22:00 +14°C° 0.1 mm 1 mps 708 mmHg 76%
    23:00 +13°C° 0.1 mm 1 mps 708 mmHg 75%
    Show more